STARLINK-34555

Satellite information

Favourite Embed

Satellite Type and Status

PAYLOADIN ORBIT

Key statistics

Satellite STARLINK-34555 at a glance.

Uptime

20

Days in orbit

Revolutions

≈ 15.5

Per day

Orbit

LEO

Low Earth Orbit

Inclination

53.2

Latest

Satellite identification and parameters

Extended collection of information and parameters for STARLINK-34555.

Object identification

Identified? True

Debris? False

Object name: STARLINK-34555

International designator: 2025-139B

Object number (NORAD): 64665

Object ID (CCSDS): 64665

Country: UNITED STATES OF AMERICA (US)

Current information (Y/N): Y

RCS size: LARGE

Orbital parameters

Period: 92.944 minutes

Inclination: 53.1592 deg

SMA: 6796.836 km

Apoapsis: 419.382 km

Periapsis: 418.021 km

RAAN: 141.4274 deg

Eccentricy: 0.0001001

Argument of periapsis: 94.4761 deg

Mean anomaly: 265.6362 deg

Mean motion: 15.49325061 rev/day

Mean motion (dot): 0.00084675 rev/day2

B* drag term: 0.0015132 1/REarth

Two-line elements (TLE)

Creation date: July 18, 2025, 2:44 a.m.

Reference frame: TEME

Reference center: EARTH

Epoch: July 17, 2025, 9:45 p.m. UTC

TLE line 0: 0 STARLINK-34555

TLE line 1: 1 64665U 25139B 25198.90635298 .00084675 00000-0 15132-2 0 9998

TLE line 2: 2 64665 53.1592 141.4274 0001001 94.4761 265.6362 15.49325061 4189

Live tracking on map

Real-time ground track for satellite STARLINK-34555.

In-orbit conjunctions

There are no conjunctions computed for STARLINK-34555, at the moment. Check back to stay up to date, as we update our databases every day.

Go to all conjunctions

Associated space launch

A batch of 27 satellites for the Starlink mega-constellation - SpaceX's project for space-based Internet communication system.

STARLINK-34555 was lifted into orbit during the mission ‘Falcon 9 Block 5 | Starlink Group 10-34’, on board a Falcon 9 space rocket.

The launch took place on June 28, 2025, 4:26 a.m. from Space Launch Complex 40.

For more information about the launch, click the button.

Launch to space Falcon 9 Block 5 | Starlink Group 10-34
Falcon 9 Block 5 | Starlink Group 10-34

Agency: SpaceX

Status: Launch Successful

Launch date: June 28, 2025, 4:26 a.m. UTC

Rocket: Falcon 9

Launch pad: Space Launch Complex 40

Location: Cape Canaveral SFS, FL, USA

...

Latest news about this satellite

News about space launch
Live coverage: SpaceX to launch 27 Starlink satellites on Falcon 9 rocket from Cape Canaveral

The Starlink 10-34 mission will be SpaceX’s 80s Falcon 9 launch of the year. The company is targeting liftoff from pad 40 at 12:26 a.m. EDT (0426 UTC).

News about space launch
Launch Roundup: Launch manifest remains busy as 2025’s halfway point approaches

With summer and winter for the Northern and Southern Hemispheres now in full swing, the… The post Launch Roundup: Launch manifest remains busy as 2025’s halfway point approaches appeared first on NASASpaceFlight.com.


Newsletter sign-up

Weekly statistics, charts and insights to help you stay on top of the space industry.